DW7371 Weather Reports


Display with metric or nautical units.
time (UTC)temp
F
wind
direction
speed
MPH
gust
MPH
rain 1hr
in
rain 24hr
in
rain mn
in
humidity
%
barometer
mb
20260831114954 52 203 0.0 0.0 0.00 0.00 0.00 96 1012.8
20260831112748 52 161 0.0 0.0 0.00 0.00 0.00 96 1013.1
20260831110622 52 150 0.0 0.0 0.00 0.00 0.00 96 1013.1
20260831105622 52 150 0.0 0.0 0.00 0.00 0.00 95 1013.1
20260831104558 52 150 0.0 1.0 0.00 0.00 0.00 96 1013.2
20260831103609 52 150 0.0 1.0 0.00 0.00 0.00 95 1013.2
20260831102538 52 150 0.0 0.0 0.00 0.00 0.00 96 1013.2
20260831100330 52 150 0.0 0.0 0.00 0.00 0.00 96 1013.3
20260831095309 52 150 0.0 0.0 0.00 0.00 0.00 95 1013.5
20260831094249 52 150 0.0 0.0 0.00 0.00 0.00 96 1013.6
20260831093246 52 150 0.0 0.0 0.00 0.00 0.00 95 1013.7
20260831092259 52 150 0.0 0.0 0.00 0.00 0.00 95 1013.9
20260831091318 52 150 0.0 0.0 0.00 0.00 0.00 95 1013.9
20260831090254 52 150 0.0 0.0 0.00 0.00 0.00 95 1013.9
20260831084150 52 119 0.0 0.0 0.00 0.00 0.00 95 1014.2
20260831080803 52 119 0.0 0.0 0.00 0.00 0.00 94 1014.4
20260831074615 53 119 0.0 0.0 0.00 0.00 0.00 94 1014.5
20260831073550 53 119 0.0 0.0 0.00 0.00 0.00 93 1014.6
20260831072614 54 119 0.0 0.0 0.00 0.00 0.00 93 1014.8
20260831071626 54 119 0.0 0.0 0.00 0.00 0.00 94 1014.8
20260831070607 53 119 0.0 0.0 0.00 0.00 0.00 93 1014.9
20260831065603 54 119 0.0 0.0 0.00 0.00 0.00 92 1015.0
20260831064556 54 119 0.0 0.0 0.00 0.00 0.00 93 1014.9
20260831063550 54 119 0.0 0.0 0.00 0.00 0.00 93 1015.1
20260831062554 54 119 0.0 0.0 0.00 0.00 0.00 92 1015.1
20260831061551 54 119 0.0 0.0 0.00 0.00 0.00 92 1015.2
20260831060525 55 119 0.0 0.0 0.00 0.00 0.00 91 1015.2
20260831055501 55 119 0.0 0.0 0.00 0.00 0.00 91 1015.2
20260831054521 55 119 0.0 0.0 0.00 0.00 0.00 90 1015.3
20260831053516 55 119 0.0 0.0 0.00 0.00 0.00 90 1015.4
20260831052526 56 119 0.0 0.0 0.00 0.00 0.00 89 1015.4
20260831051540 56 147 0.0 0.0 0.00 0.00 0.00 90 1015.5
20260831050539 56 147 0.0 0.0 0.00 0.00 0.00 88 1015.6
20260831043231 57 147 0.0 0.0 0.00 0.00 0.00 87 1015.7
20260831042212 58 167 0.0 3.0 0.00 0.00 0.00 86 1015.8
20260831034931 59 153 0.0 0.0 0.00 0.00 0.00 84 1016.0
20260831033933 59 153 0.0 0.0 0.00 0.00 0.00 83 1015.9
20260831032911 59 134 0.0 0.0 0.00 0.00 0.00 83 1015.8
20260831031900 59 150 0.0 0.0 0.00 0.00 0.00 83 1015.8
20260831030918 60 185 0.0 1.0 0.00 0.00 0.00 81 1015.8
20260831025858 60 186 0.0 3.0 0.00 0.00 0.00 81 1015.8
20260831023709 61 158 0.0 1.0 0.00 0.00 0.00 78 1015.9
20260831022728 62 163 0.0 1.0 0.00 0.00 0.00 77 1016.0
20260831021703 62 173 0.0 3.0 0.00 0.00 0.00 76 1016.0
20260831020725 62 171 0.0 3.0 0.00 0.00 0.00 75 1016.1
20260831014625 62 169 0.0 3.0 0.00 0.00 0.00 73 1016.2
20260831013610 63 154 0.0 2.0 0.00 0.00 0.00 71 1016.2
20260831012552 63 137 1.0 0.0 0.00 0.00 0.00 70 1016.2
20260831011553 63 279 0.0 1.0 0.00 0.00 0.00 71 1016.3
20260831005447 63 281 0.0 5.0 0.00 0.00 0.00 73 1016.4
20260831004442 64 281 2.0 5.0 0.00 0.00 0.00 70 1016.4
20260831003413 65 207 1.0 8.0 0.00 0.00 0.00 66 1016.4
20260831002408 65 190 4.0 8.0 0.00 0.00 0.00 65 1016.5
20260831001350 65 192 2.0 5.0 0.00 0.00 0.00 66 1016.6
20260831000403 65 254 3.0 5.0 0.00 0.00 0.00 66 1016.8
20260830235327 64 250 3.0 5.0 0.00 0.00 0.00 67 1016.8
20260830234339 64 243 2.0 6.0 0.00 0.00 0.00 68 1016.8
20260830233316 64 248 2.0 6.0 0.00 0.00 0.00 69 1016.9
20260830232258 64 209 2.0 5.0 0.00 0.00 0.00 70 1017.0
20260830230112 64 224 2.0 8.0 0.00 0.00 0.00 68 1017.1
20260830225134 65 276 5.0 9.0 0.00 0.00 0.00 68 1017.1
20260830223006 65 262 3.0 7.0 0.00 0.00 0.00 69 1017.1
20260830221944 64 152 4.0 7.0 0.00 0.00 0.00 70 1017.3
20260830220938 64 263 5.0 10.0 0.00 0.00 0.00 71 1017.4
20260830213733 64 242 6.0 9.0 0.00 0.00 0.00 69 1017.5
20260830212715 65 197 5.0 11.0 0.00 0.00 0.00 69 1017.5
20260830211649 66 196 4.0 13.0 0.00 0.00 0.00 66 1017.5
20260830210631 65 161 5.0 13.0 0.00 0.00 0.00 67 1017.6
20260830205649 64 170 6.0 11.0 0.00 0.00 0.00 69 1017.5
20260830204630 65 205 4.0 11.0 0.00 0.00 0.00 69 1017.5
20260830203559 64 166 4.0 11.0 0.00 0.00 0.00 70 1017.5
20260830202605 64 195 4.0 10.0 0.00 0.00 0.00 71 1017.5
20260830201538 63 263 4.0 10.0 0.00 0.00 0.00 71 1017.5
20260830195353 63 153 4.0 9.0 0.00 0.00 0.00 73 1017.6
20260830194416 62 164 5.0 12.0 0.00 0.00 0.00 73 1017.7
20260830193430 62 167 4.0 14.0 0.00 0.00 0.00 73 1017.7
20260830191343 62 226 5.0 12.0 0.00 0.00 0.00 75 1017.7
20260830190330 61 196 5.0 11.0 0.00 0.00 0.00 76 1017.8
20260830184136 61 184 5.0 13.0 0.00 0.00 0.00 78 1017.8
20260830182037 61 196 4.0 11.0 0.00 0.02 0.00 79 1017.9
20260830181028 61 190 4.0 11.0 0.00 0.02 0.00 79 1017.9
20260830175954 60 130 4.0 9.0 0.00 0.04 0.00 81 1017.9
20260830175003 60 164 4.0 9.0 0.00 0.04 0.00 81 1017.8
20260830174019 60 206 2.0 8.0 0.00 0.04 0.00 82 1017.8
20260830170805 60 165 4.0 10.0 0.00 0.04 0.00 83 1017.6
20260830165744 59 154 4.0 9.0 0.00 0.04 0.00 84 1017.6
20260830164806 59 146 4.0 9.0 0.00 0.04 0.00 85 1017.8
20260830162708 57 180 4.0 10.0 0.00 0.04 0.00 87 1017.7
20260830161645 57 196 3.0 9.0 0.00 0.04 0.00 88 1017.7
20260830160703 57 183 3.0 11.0 0.00 0.04 0.00 88 1017.6
20260830155701 57 169 3.0 11.0 0.00 0.04 0.00 90 1017.6
20260830154707 56 164 3.0 10.0 0.00 0.04 0.00 90 1017.6
20260830153654 56 130 2.0 8.0 0.00 0.04 0.00 90 1017.6
20260830152628 56 101 2.0 7.0 0.00 0.04 0.00 90 1017.5
20260830151653 56 131 2.0 9.0 0.00 0.04 0.00 90 1017.5
20260830150706 56 55 2.0 9.0 0.00 0.04 0.00 91 1017.5
20260830145705 56 146 1.0 5.0 0.00 0.04 0.00 91 1017.4
20260830144718 56 184 1.0 8.0 0.00 0.04 0.00 92 1017.4
20260830143738 55 132 2.0 8.0 0.00 0.04 0.00 93 1017.4
20260830141646 55 147 1.0 6.0 0.00 0.04 0.00 94 1017.1
20260830140620 54 145 1.0 6.0 0.00 0.04 0.00 94 1017.1
20260830134538 54 110 1.0 8.0 0.00 0.04 0.00 94 1017.0
20260830132431 54 167 2.0 6.0 0.00 0.04 0.00 94 1016.9
20260830131417 54 162 1.0 6.0 0.00 0.04 0.00 93 1016.8
20260830130400 54 137 2.0 6.0 0.00 0.04 0.00 93 1016.7
20260830125344 54 132 1.0 3.0 0.00 0.04 0.00 92 1016.7
20260830124345 54 117 1.0 2.0 0.00 0.04 0.00 93 1016.7
20260830123406 54 121 0.0 3.0 0.00 0.04 0.00 92 1016.7
20260830121249 53 134 1.0 2.0 0.00 0.06 0.00 93 1016.8
20260830120230 53 115 1.0 2.0 0.00 0.06 0.00 92 1016.8